Time,TemperatureF,DewpointF,PressureIn,WindDirection,WindDirectionDegrees,WindSpeedMPH,WindSpeedGustMPH,Humidity,HourlyPrecipIn,Conditions,Clouds,dailyrainin,SoftwareType,DateUTC
2013-05-09 00:00:00,62.0,-99.9,-100.00,West,264,8.0,13.0,-999,-99.99,,,-99.99,,2013-05-09 07:00:00,
2013-05-09 00:22:00,64.0,-99.9,-100.00,WNW,288,11.0,14.0,-999,-99.99,,,-99.99,,2013-05-09 07:22:00,
2013-05-09 00:32:00,62.0,-99.9,-100.00,West,264,8.0,13.0,-999,-99.99,,,-99.99,,2013-05-09 07:32:00,
2013-05-09 00:43:00,62.0,-99.9,-100.00,West,264,8.0,13.0,-999,-99.99,,,-99.99,,2013-05-09 07:43:00,
2013-05-09 00:52:00,62.0,-99.9,-100.00,West,264,8.0,13.0,-999,-99.99,,,-99.99,,2013-05-09 07:52:00,
2013-05-09 01:32:00,63.0,-99.9,-100.00,WNW,292,4.0,15.0,-999,-99.99,,,-99.99,,2013-05-09 08:32:00,
2013-05-09 01:42:00,63.0,-99.9,-100.00,WNW,292,4.0,15.0,-999,-99.99,,,-99.99,,2013-05-09 08:42:00,
2013-05-09 01:52:00,63.0,-99.9,-100.00,WNW,292,4.0,15.0,-999,-99.99,,,-99.99,,2013-05-09 08:52:00,
2013-05-09 02:00:00,62.0,-99.9,-100.00,West,275,8.0,14.0,-999,-99.99,,,-99.99,,2013-05-09 09:00:00,
2013-05-09 02:02:00,63.0,-99.9,-100.00,North,354,8.0,16.0,-999,-99.99,,,-99.99,,2013-05-09 09:02:00,
2013-05-09 02:12:00,63.0,-99.9,-100.00,North,354,8.0,16.0,-999,-99.99,,,-99.99,,2013-05-09 09:12:00,
2013-05-09 02:32:00,62.0,-99.9,-100.00,West,275,8.0,14.0,-999,-99.99,,,-99.99,,2013-05-09 09:32:00,
2013-05-09 02:43:00,62.0,-99.9,-100.00,West,275,8.0,14.0,-999,-99.99,,,-99.99,,2013-05-09 09:43:00,
2013-05-09 02:53:00,62.0,-99.9,-100.00,West,275,8.0,14.0,-999,-99.99,,,-99.99,,2013-05-09 09:53:00,
2013-05-09 03:33:00,60.0,-99.9,-100.00,WSW,252,8.0,12.0,-999,-99.99,,,-99.99,,2013-05-09 10:33:00,
2013-05-09 03:42:00,60.0,-99.9,-100.00,WSW,252,8.0,12.0,-999,-99.99,,,-99.99,,2013-05-09 10:42:00,
2013-05-09 03:53:00,62.0,-99.9,-100.00,West,273,10.0,13.0,-999,-99.99,,,-99.99,,2013-05-09 10:53:00,
2013-05-09 04:03:00,62.0,-99.9,-100.00,West,273,10.0,13.0,-999,-99.99,,,-99.99,,2013-05-09 11:03:00,
2013-05-09 04:23:00,62.0,-99.9,-100.00,West,281,11.0,13.0,-999,-99.99,,,-99.99,,2013-05-09 11:23:00,
2013-05-09 04:32:00,62.0,-99.9,-100.00,West,269,12.0,15.0,-999,-99.99,,,-99.99,,2013-05-09 11:32:00,
2013-05-09 04:42:00,62.0,-99.9,-100.00,West,269,12.0,15.0,-999,-99.99,,,-99.99,,2013-05-09 11:42:00,
2013-05-09 04:52:00,60.0,-99.9,-100.00,West,262,5.0,11.0,-999,-99.99,,,-99.99,,2013-05-09 11:52:00,
2013-05-09 05:02:00,60.0,-99.9,-100.00,West,262,5.0,11.0,-999,-99.99,,,-99.99,,2013-05-09 12:02:00,
2013-05-09 05:32:00,58.0,-99.9,-100.00,WSW,248,4.0,11.0,-999,-99.99,,,-99.99,,2013-05-09 12:32:00,
2013-05-09 05:43:00,58.0,-99.9,-100.00,WSW,248,4.0,11.0,-999,-99.99,,,-99.99,,2013-05-09 12:43:00,
2013-05-09 05:52:00,58.0,-99.9,-100.00,WSW,248,4.0,11.0,-999,-99.99,,,-99.99,,2013-05-09 12:52:00,
2013-05-09 06:00:00,59.0,-99.9,-100.00,WNW,283,5.0,8.0,-999,-99.99,,,-99.99,,2013-05-09 13:00:00,
2013-05-09 06:02:00,61.0,-99.9,-100.00,West,280,6.0,14.0,-999,-99.99,,,-99.99,,2013-05-09 13:02:00,
2013-05-09 06:12:00,61.0,-99.9,-100.00,West,280,6.0,14.0,-999,-99.99,,,-99.99,,2013-05-09 13:12:00,
2013-05-09 06:32:00,59.0,-99.9,-100.00,WNW,283,5.0,8.0,-999,-99.99,,,-99.99,,2013-05-09 13:32:00,
2013-05-09 06:42:00,59.0,-99.9,-100.00,WNW,283,5.0,8.0,-999,-99.99,,,-99.99,,2013-05-09 13:42:00,
2013-05-09 06:52:00,59.0,-99.9,-100.00,WNW,283,5.0,8.0,-999,-99.99,,,-99.99,,2013-05-09 13:52:00,
2013-05-09 07:00:00,58.0,-99.9,-100.00,West,267,6.0,10.0,-999,-99.99,,,-99.99,,2013-05-09 14:00:00,
2013-05-09 07:32:00,58.0,-99.9,-100.00,West,267,6.0,10.0,-999,-99.99,,,-99.99,,2013-05-09 14:32:00,
2013-05-09 07:42:00,58.0,-99.9,-100.00,West,267,6.0,10.0,-999,-99.99,,,-99.99,,2013-05-09 14:42:00,
2013-05-09 07:52:00,58.0,-99.9,-100.00,West,267,6.0,10.0,-999,-99.99,,,-99.99,,2013-05-09 14:52:00,
2013-05-09 08:33:00,61.0,-99.9,-100.00,WSW,239,5.0,12.0,-999,-99.99,,,-99.99,,2013-05-09 15:33:00,
2013-05-09 08:43:00,61.0,-99.9,-100.00,WSW,239,5.0,12.0,-999,-99.99,,,-99.99,,2013-05-09 15:43:00,
2013-05-09 08:53:00,62.0,-99.9,-100.00,West,269,8.0,10.0,-999,-99.99,,,-99.99,,2013-05-09 15:53:00,
2013-05-09 09:00:00,63.0,-99.9,-100.00,West,269,10.0,14.0,-999,-99.99,,,-99.99,,2013-05-09 16:00:00,
2013-05-09 09:03:00,62.0,-99.9,-100.00,West,269,8.0,10.0,-999,-99.99,,,-99.99,,2013-05-09 16:03:00,
2013-05-09 09:33:00,63.0,-99.9,-100.00,West,269,10.0,14.0,-999,-99.99,,,-99.99,,2013-05-09 16:33:00,
2013-05-09 09:42:00,63.0,-99.9,-100.00,West,269,10.0,14.0,-999,-99.99,,,-99.99,,2013-05-09 16:42:00,
2013-05-09 09:53:00,63.0,-99.9,-100.00,West,269,10.0,14.0,-999,-99.99,,,-99.99,,2013-05-09 16:53:00,
2013-05-09 10:00:00,66.0,-99.9,-100.00,West,264,6.0,13.0,-999,-99.99,,,-99.99,,2013-05-09 17:00:00,
2013-05-09 10:22:00,67.0,-99.9,-100.00,WSW,238,9.0,12.0,-999,-99.99,,,-99.99,,2013-05-09 17:22:00,
2013-05-09 10:32:00,66.0,-99.9,-100.00,West,264,6.0,13.0,-999,-99.99,,,-99.99,,2013-05-09 17:32:00,
2013-05-09 10:42:00,66.0,-99.9,-100.00,West,264,6.0,13.0,-999,-99.99,,,-99.99,,2013-05-09 17:42:00,
2013-05-09 10:55:00,66.0,-99.9,-100.00,West,264,6.0,13.0,-999,-99.99,,,-99.99,,2013-05-09 17:55:00,
2013-05-09 11:00:00,72.0,-99.9,-100.00,North,354,7.0,9.0,-999,-99.99,,,-99.99,,2013-05-09 18:00:00,
2013-05-09 11:32:00,72.0,-99.9,-100.00,North,354,7.0,9.0,-999,-99.99,,,-99.99,,2013-05-09 18:32:00,
2013-05-09 11:42:00,72.0,-99.9,-100.00,North,354,7.0,9.0,-999,-99.99,,,-99.99,,2013-05-09 18:42:00,
2013-05-09 11:53:00,72.0,-99.9,-100.00,North,354,7.0,9.0,-999,-99.99,,,-99.99,,2013-05-09 18:53:00,
2013-05-09 12:20:00,76.0,-99.9,-100.00,WNW,297,5.0,7.0,-999,-99.99,,,-99.99,,2013-05-09 19:20:00,
2013-05-09 13:11:00,76.0,-99.9,-100.00,WNW,297,5.0,7.0,-999,-99.99,,,-99.99,,2013-05-09 20:11:00,
2013-05-09 13:20:00,75.0,-99.9,-100.00,West,277,11.0,13.0,-999,-99.99,,,-99.99,,2013-05-09 20:20:00,
2013-05-09 13:32:00,76.0,-99.9,-100.00,WNW,282,8.0,10.0,-999,-99.99,,,-99.99,,2013-05-09 20:32:00,
2013-05-09 13:42:00,76.0,-99.9,-100.00,WNW,282,8.0,10.0,-999,-99.99,,,-99.99,,2013-05-09 20:42:00,
2013-05-09 13:52:00,76.0,-99.9,-100.00,WNW,282,8.0,10.0,-999,-99.99,,,-99.99,,2013-05-09 20:52:00,
2013-05-09 14:02:00,75.0,-99.9,-100.00,West,277,11.0,13.0,-999,-99.99,,,-99.99,,2013-05-09 21:02:00,
2013-05-09 14:12:00,75.0,-99.9,-100.00,West,277,11.0,13.0,-999,-99.99,,,-99.99,,2013-05-09 21:12:00,
2013-05-09 15:03:00,81.0,-99.9,-100.00,West,267,6.0,11.0,-999,-99.99,,,-99.99,,2013-05-09 22:03:00,
2013-05-09 15:13:00,81.0,-99.9,-100.00,West,267,6.0,11.0,-999,-99.99,,,-99.99,,2013-05-09 22:13:00,
2013-05-09 15:23:00,81.0,-99.9,-100.00,West,267,6.0,11.0,-999,-99.99,,,-99.99,,2013-05-09 22:23:00,
2013-05-09 15:33:00,78.0,-99.9,-100.00,West,275,10.0,18.0,-999,-99.99,,,-99.99,,2013-05-09 22:33:00,
2013-05-09 15:42:00,78.0,-99.9,-100.00,West,275,10.0,18.0,-999,-99.99,,,-99.99,,2013-05-09 22:42:00,
2013-05-09 15:53:00,78.0,-99.9,-100.00,West,275,10.0,18.0,-999,-99.99,,,-99.99,,2013-05-09 22:53:00,
2013-05-09 16:03:00,80.0,-99.9,-100.00,West,265,7.0,18.0,-999,-99.99,,,-99.99,,2013-05-09 23:03:00,
2013-05-09 16:12:00,80.0,-99.9,-100.00,West,265,7.0,18.0,-999,-99.99,,,-99.99,,2013-05-09 23:12:00,
2013-05-09 16:22:00,80.0,-99.9,-100.00,West,265,7.0,18.0,-999,-99.99,,,-99.99,,2013-05-09 23:22:00,
2013-05-09 16:32:00,81.0,-99.9,-100.00,WSW,238,12.0,21.0,-999,-99.99,,,-99.99,,2013-05-09 23:32:00,
2013-05-09 16:43:00,81.0,-99.9,-100.00,WSW,238,12.0,21.0,-999,-99.99,,,-99.99,,2013-05-09 23:43:00,
2013-05-09 16:52:00,81.0,-99.9,-100.00,WSW,238,12.0,21.0,-999,-99.99,,,-99.99,,2013-05-09 23:52:00,
2013-05-09 17:02:00,81.0,-99.9,-100.00,SW,220,9.0,14.0,-999,-99.99,,,-99.99,,2013-05-10 00:02:00,
2013-05-09 17:11:00,81.0,-99.9,-100.00,SW,220,9.0,14.0,-999,-99.99,,,-99.99,,2013-05-10 00:11:00,
2013-05-09 17:22:00,81.0,-99.9,-100.00,SW,220,9.0,14.0,-999,-99.99,,,-99.99,,2013-05-10 00:22:00,
2013-05-09 18:00:00,82.0,-99.9,-100.00,West,270,17.0,17.0,-999,-99.99,,,-99.99,,2013-05-10 01:00:00,
2013-05-09 18:01:00,82.0,-99.9,-100.00,West,276,10.0,20.0,-999,-99.99,,,-99.99,,2013-05-10 01:01:00,
2013-05-09 18:11:00,82.0,-99.9,-100.00,West,276,10.0,20.0,-999,-99.99,,,-99.99,,2013-05-10 01:11:00,
2013-05-09 18:32:00,82.0,-99.9,-100.00,West,274,15.0,15.0,-999,-99.99,,,-99.99,,2013-05-10 01:32:00,
2013-05-09 18:42:00,82.0,-99.9,-100.00,West,274,15.0,15.0,-999,-99.99,,,-99.99,,2013-05-10 01:42:00,
2013-05-09 18:52:00,82.0,-99.9,-100.00,West,270,17.0,17.0,-999,-99.99,,,-99.99,,2013-05-10 01:52:00,
2013-05-09 19:00:00,80.0,-99.9,-100.00,WSW,238,15.0,17.0,-999,-99.99,,,-99.99,,2013-05-10 02:00:00,
2013-05-09 19:32:00,81.0,-99.9,-100.00,WSW,251,17.0,20.0,-999,-99.99,,,-99.99,,2013-05-10 02:32:00,
2013-05-09 19:42:00,81.0,-99.9,-100.00,WSW,251,17.0,20.0,-999,-99.99,,,-99.99,,2013-05-10 02:42:00,
2013-05-09 19:53:00,80.0,-99.9,-100.00,WSW,238,15.0,17.0,-999,-99.99,,,-99.99,,2013-05-10 02:53:00,
2013-05-09 20:00:00,77.0,-99.9,-100.00,West,266,14.0,15.0,-999,-99.99,,,-99.99,,2013-05-10 03:00:00,
2013-05-09 20:33:00,77.0,-99.9,-100.00,West,266,14.0,15.0,-999,-99.99,,,-99.99,,2013-05-10 03:33:00,
2013-05-09 20:43:00,77.0,-99.9,-100.00,West,266,14.0,15.0,-999,-99.99,,,-99.99,,2013-05-10 03:43:00,
2013-05-09 20:53:00,77.0,-99.9,-100.00,West,266,14.0,15.0,-999,-99.99,,,-99.99,,2013-05-10 03:53:00,
2013-05-09 21:00:00,73.0,-99.9,-100.00,WSW,255,10.0,16.0,-999,-99.99,,,-99.99,,2013-05-10 04:00:00,
2013-05-09 21:23:00,76.0,-99.9,-100.00,West,266,14.0,18.0,-999,-99.99,,,-99.99,,2013-05-10 04:23:00,
2013-05-09 21:33:00,73.0,-99.9,-100.00,WSW,255,10.0,16.0,-999,-99.99,,,-99.99,,2013-05-10 04:33:00,
2013-05-09 21:43:00,73.0,-99.9,-100.00,WSW,255,10.0,16.0,-999,-99.99,,,-99.99,,2013-05-10 04:43:00,
2013-05-09 21:53:00,73.0,-99.9,-100.00,WSW,255,10.0,16.0,-999,-99.99,,,-99.99,,2013-05-10 04:53:00,
2013-05-09 22:00:00,73.0,-99.9,-100.00,West,274,9.0,12.0,-999,-99.99,,,-99.99,,2013-05-10 05:00:00,
2013-05-09 22:32:00,73.0,-99.9,-100.00,West,274,9.0,12.0,-999,-99.99,,,-99.99,,2013-05-10 05:32:00,
2013-05-09 22:42:00,73.0,-99.9,-100.00,West,274,9.0,12.0,-999,-99.99,,,-99.99,,2013-05-10 05:42:00,
2013-05-09 22:52:00,73.0,-99.9,-100.00,West,274,9.0,12.0,-999,-99.99,,,-99.99,,2013-05-10 05:52:00,
2013-05-09 23:32:00,69.0,-99.9,-100.00,WNW,283,5.0,12.0,-999,-99.99,,,-99.99,,2013-05-10 06:32:00,
2013-05-09 23:42:00,69.0,-99.9,-100.00,WNW,283,5.0,12.0,-999,-99.99,,,-99.99,,2013-05-10 06:42:00,
2013-05-09 23:52:00,69.0,-99.9,-100.00,NW,304,4.0,7.0,-999,-99.99,,,-99.99,,2013-05-10 06:52:00,